| time (UTC) | temp F | wind direction | speed MPH | gust MPH | rain 1hr in | rain 24hr in | rain mn in | humidity % | barometer mb |
| 20260905044554 | 55 | 109 | 0.0 | 0.0 | 0.00 | 0.08 | 0.01 | 73 | 1015.7 |
| 20260905043053 | 55 | 109 | 0.0 | 1.0 | 0.00 | 0.08 | 0.01 | 71 | 1015.6 |
| 20260905041600 | 56 | 110 | 0.0 | 0.0 | 0.00 | 0.08 | 0.01 | 68 | 1015.8 |
| 20260905040052 | 57 | 110 | 0.0 | 1.0 | 0.00 | 0.08 | 0.01 | 65 | 1015.7 |
| 20260905034602 | 58 | 110 | 0.0 | 0.0 | 0.00 | 0.32 | 0.01 | 64 | 1015.6 |
| 20260905033051 | 59 | 110 | 0.0 | 1.0 | 0.00 | 0.32 | 0.01 | 60 | 1015.6 |
| 20260905031550 | 60 | 109 | 0.0 | 6.0 | 0.00 | 0.32 | 0.01 | 59 | 1015.3 |
| 20260905030047 | 60 | 94 | 3.0 | 10.0 | 0.00 | 0.32 | 0.01 | 56 | 1015.2 |
| 20260905024546 | 61 | 111 | 2.0 | 8.0 | 0.00 | 0.32 | 0.01 | 56 | 1015.3 |
| 20260905023046 | 61 | 122 | 3.0 | 12.0 | 0.00 | 0.32 | 0.01 | 56 | 1015.3 |
| 20260905021551 | 62 | 77 | 0.0 | 3.0 | 0.00 | 0.32 | 0.01 | 56 | 1015.2 |
| 20260905020043 | 62 | 225 | 0.0 | 4.0 | 0.00 | 0.32 | 0.01 | 55 | 1015.1 |
| 20260905014541 | 63 | 202 | 1.0 | 4.0 | 0.00 | 0.32 | 0.01 | 52 | 1015.1 |
| 20260905013040 | 64 | 331 | 1.0 | 4.0 | 0.00 | 0.32 | 0.01 | 54 | 1015.0 |
| 20260905011543 | 65 | 49 | 1.0 | 5.0 | 0.00 | 0.32 | 0.01 | 52 | 1014.5 |
| 20260905010036 | 65 | 74 | 2.0 | 4.0 | 0.00 | 0.32 | 0.01 | 46 | 1014.5 |
| 20260905004543 | 66 | 111 | 2.0 | 6.0 | 0.00 | 0.32 | 0.01 | 47 | 1014.4 |
| 20260905003034 | 66 | 79 | 1.0 | 7.0 | 0.00 | 0.32 | 0.01 | 47 | 1014.1 |
| 20260905001547 | 66 | 103 | 4.0 | 9.0 | 0.00 | 0.32 | 0.01 | 44 | 1014.0 |
| 20260905000032 | 67 | 104 | 4.0 | 10.0 | 0.00 | 0.32 | 0.01 | 46 | 1014.1 |
| 20260904234537 | 66 | 85 | 6.0 | 9.0 | 0.00 | 0.32 | 0.01 | 48 | 1013.9 |
| 20260904233040 | 65 | 94 | 4.0 | 11.0 | 0.00 | 0.32 | 0.01 | 50 | 1013.9 |
| 20260904231538 | 65 | 90 | 5.0 | 13.0 | 0.00 | 0.32 | 0.01 | 50 | 1014.0 |
| 20260904230029 | 64 | 95 | 5.0 | 11.0 | 0.00 | 0.32 | 0.01 | 54 | 1013.9 |
| 20260904224627 | 64 | 73 | 6.0 | 10.0 | 0.00 | 0.32 | 0.01 | 53 | 1014.0 |
| 20260904223026 | 65 | 105 | 5.0 | 7.0 | 0.00 | 0.32 | 0.01 | 53 | 1013.9 |
| 20260904221526 | 65 | 96 | 3.0 | 7.0 | 0.00 | 0.32 | 0.01 | 52 | 1013.9 |
| 20260904220026 | 66 | 75 | 4.0 | 10.0 | 0.00 | 0.32 | 0.01 | 48 | 1013.9 |
| 20260904214523 | 67 | 298 | 1.0 | 5.0 | 0.00 | 0.32 | 0.01 | 46 | 1013.9 |
| 20260904213025 | 67 | 327 | 2.0 | 10.0 | 0.00 | 0.32 | 0.01 | 45 | 1013.7 |
| 20260904211521 | 68 | 308 | 1.0 | 5.0 | 0.00 | 0.32 | 0.01 | 47 | 1013.6 |
| 20260904210020 | 68 | 335 | 1.0 | 14.0 | 0.00 | 0.32 | 0.01 | 43 | 1013.4 |
| 20260904204517 | 69 | 335 | 2.0 | 8.0 | 0.00 | 0.32 | 0.01 | 43 | 1013.3 |
| 20260904203014 | 69 | 345 | 4.0 | 7.0 | 0.00 | 0.32 | 0.01 | 44 | 1013.1 |
| 20260904201512 | 68 | 57 | 4.0 | 7.0 | 0.00 | 0.32 | 0.01 | 46 | 1013.2 |
| 20260904200011 | 68 | 39 | 1.0 | 8.0 | 0.00 | 0.32 | 0.01 | 46 | 1013.3 |
| 20260904194508 | 67 | 32 | 3.0 | 8.0 | 0.00 | 0.32 | 0.01 | 46 | 1013.5 |
| 20260904193006 | 66 | 297 | 1.0 | 6.0 | 0.00 | 0.32 | 0.01 | 49 | 1013.5 |
| 20260904191503 | 66 | 239 | 3.0 | 6.0 | 0.00 | 0.32 | 0.01 | 49 | 1013.5 |
| 20260904190106 | 65 | 256 | 3.0 | 8.0 | 0.00 | 0.32 | 0.01 | 50 | 1013.5 |
| 20260904184559 | 64 | 257 | 2.0 | 5.0 | 0.00 | 0.32 | 0.01 | 52 | 1013.6 |
| 20260904183059 | 64 | 281 | 3.0 | 4.0 | 0.00 | 0.32 | 0.01 | 50 | 1013.6 |
| 20260904181555 | 63 | 124 | 0.0 | 3.0 | 0.00 | 0.32 | 0.01 | 51 | 1013.5 |
| 20260904180056 | 63 | 86 | 0.0 | 2.0 | 0.00 | 0.32 | 0.01 | 53 | 1013.6 |
| 20260904174549 | 62 | 139 | 0.0 | 2.0 | 0.00 | 0.32 | 0.01 | 58 | 1013.7 |
| 20260904173052 | 61 | 146 | 0.0 | 3.0 | 0.00 | 0.32 | 0.01 | 61 | 1013.7 |
| 20260904171546 | 61 | 295 | 1.0 | 3.0 | 0.00 | 0.32 | 0.01 | 62 | 1013.7 |
| 20260904170046 | 59 | 222 | 1.0 | 3.0 | 0.00 | 0.32 | 0.01 | 66 | 1013.6 |
| 20260904164538 | 58 | 243 | 0.0 | 1.0 | 0.00 | 0.32 | 0.01 | 69 | 1013.7 |
| 20260904163035 | 56 | 179 | 0.0 | 3.0 | 0.00 | 0.32 | 0.01 | 75 | 1013.6 |
| 20260904161532 | 54 | 107 | 0.0 | 2.0 | 0.00 | 0.32 | 0.01 | 79 | 1013.6 |
| 20260904160027 | 53 | 110 | 1.0 | 3.0 | 0.00 | 0.32 | 0.01 | 80 | 1013.6 |
| 20260904154525 | 52 | 119 | 0.0 | 3.0 | 0.00 | 0.32 | 0.01 | 83 | 1013.5 |
| 20260904153025 | 52 | 142 | 0.0 | 2.0 | 0.00 | 0.32 | 0.01 | 83 | 1013.6 |
| 20260904151526 | 52 | 172 | 0.0 | 0.0 | 0.00 | 0.32 | 0.01 | 84 | 1013.5 |
| 20260904150033 | 52 | 172 | 0.0 | 1.0 | 0.01 | 0.32 | 0.01 | 84 | 1013.5 |
| 20260904144523 | 53 | 110 | 0.0 | 1.0 | 0.01 | 0.32 | 0.01 | 84 | 1013.4 |
| 20260904143021 | 53 | 110 | 0.0 | 1.0 | 0.01 | 0.32 | 0.01 | 85 | 1013.3 |
| 20260904141517 | 52 | 110 | 0.0 | 1.0 | 0.01 | 0.32 | 0.01 | 85 | 1013.0 |
| 20260904140016 | 51 | 110 | 0.0 | 1.0 | 0.00 | 0.31 | 0.00 | 85 | 1012.9 |
| 20260904134515 | 50 | 110 | 0.0 | 1.0 | 0.00 | 0.31 | 0.00 | 87 | 1012.8 |
| 20260904133013 | 50 | 110 | 0.0 | 0.0 | 0.00 | 0.31 | 0.00 | 85 | 1012.7 |
| 20260904131510 | 50 | 110 | 0.0 | 0.0 | 0.00 | 0.31 | 0.00 | 84 | 1012.3 |
| 20260904130009 | 50 | 110 | 0.0 | 1.0 | 0.00 | 0.31 | 0.00 | 85 | 1012.2 |
| 20260904124506 | 50 | 110 | 0.0 | 0.0 | 0.00 | 0.31 | 0.00 | 86 | 1012.0 |
| 20260904123005 | 50 | 110 | 0.0 | 0.0 | 0.00 | 0.31 | 0.00 | 85 | 1011.8 |
| 20260904121504 | 50 | 110 | 0.0 | 1.0 | 0.00 | 0.31 | 0.00 | 85 | 1011.6 |
| 20260904120002 | 50 | 110 | 0.0 | 0.0 | 0.00 | 0.31 | 0.00 | 86 | 1011.4 |
| 20260904114504 | 50 | 110 | 0.0 | 0.0 | 0.00 | 0.31 | 0.00 | 87 | 1011.4 |
| 20260904113200 | 51 | 110 | 0.0 | 0.0 | 0.00 | 0.31 | 0.00 | 85 | 1011.3 |
| 20260904111558 | 51 | 110 | 0.0 | 1.0 | 0.00 | 0.31 | 0.00 | 83 | 1011.2 |
| 20260904110056 | 51 | 110 | 0.0 | 1.0 | 0.00 | 0.31 | 0.00 | 83 | 1010.9 |
| 20260904104553 | 51 | 110 | 0.0 | 2.0 | 0.00 | 0.31 | 0.00 | 84 | 1010.8 |
| 20260904103051 | 51 | 110 | 0.0 | 1.0 | 0.00 | 0.31 | 0.00 | 85 | 1010.6 |
| 20260904101550 | 50 | 110 | 0.0 | 1.0 | 0.00 | 0.31 | 0.00 | 87 | 1010.5 |
| 20260904100048 | 49 | 110 | 0.0 | 0.0 | 0.00 | 0.31 | 0.00 | 90 | 1010.2 |
| 20260904094647 | 49 | 110 | 0.0 | 0.0 | 0.00 | 0.31 | 0.00 | 88 | 1010.1 |
| 20260904093053 | 49 | 110 | 0.0 | 0.0 | 0.00 | 0.31 | 0.00 | 87 | 1010.1 |
| 20260904091552 | 49 | 110 | 0.0 | 1.0 | 0.00 | 0.31 | 0.00 | 87 | 1010.1 |
| 20260904090044 | 49 | 110 | 0.0 | 0.0 | 0.00 | 0.31 | 0.00 | 90 | 1010.0 |
| 20260904084545 | 49 | 110 | 0.0 | 1.0 | 0.00 | 0.31 | 0.00 | 90 | 1010.1 |
| 20260904083042 | 49 | 110 | 0.0 | 0.0 | 0.00 | 0.31 | 0.00 | 87 | 1010.1 |
| 20260904081540 | 50 | 110 | 0.0 | 1.0 | 0.00 | 0.31 | 0.00 | 86 | 1010.1 |
| 20260904080140 | 50 | 131 | 0.0 | 1.0 | 0.00 | 0.31 | 0.00 | 88 | 1009.9 |
| 20260904074552 | 49 | 86 | 0.0 | 1.0 | 0.00 | 0.31 | 0.00 | 89 | 1009.9 |
| 20260904073035 | 49 | 86 | 0.0 | 0.0 | 0.00 | 0.31 | 0.00 | 89 | 1009.8 |
| 20260904071546 | 50 | 86 | 0.0 | 0.0 | 0.00 | 0.31 | 0.00 | 87 | 1009.7 |
| 20260904070029 | 51 | 86 | 0.0 | 1.0 | 0.00 | 0.31 | 0.00 | 84 | 1009.6 |
| 20260904064533 | 51 | 101 | 0.0 | 1.0 | 0.00 | 0.32 | 0.31 | 92 | 1009.6 |
| 20260904063038 | 52 | 113 | 0.0 | 1.0 | 0.00 | 0.32 | 0.31 | 95 | 1009.5 |
| 20260904061631 | 52 | 108 | 0.0 | 0.0 | 0.01 | 0.32 | 0.31 | 95 | 1009.5 |
| 20260904060029 | 52 | 107 | 0.0 | 1.0 | 0.01 | 0.32 | 0.31 | 95 | 1009.6 |
| 20260904054533 | 52 | 107 | 0.0 | 1.0 | 0.01 | 0.34 | 0.31 | 95 | 1009.7 |
| 20260904053026 | 53 | 107 | 0.0 | 2.0 | 0.00 | 0.33 | 0.30 | 95 | 1009.6 |
| 20260904051524 | 53 | 96 | 0.0 | 0.0 | 0.01 | 0.33 | 0.30 | 95 | 1009.8 |
| 20260904050028 | 53 | 94 | 0.0 | 1.0 | 0.06 | 0.33 | 0.30 | 95 | 1009.9 |